Location: Kaltenbach
(49.2000°N, 7.7500°E)
Time: 12:26:07
(UTC+00:00)

Shenzhou-11 Module - Pass Details

Date: 24 January 2020
Orbit: 298 x 313 km, 42.8° (Epoch: 16 February)

Event Time Altitude Azimuth Distance (km) Brightness Sun altitude
Rises 17:12:35 0° 227° (SW) 2,028 7.1 -9.9°
Reaches altitude 10° 17:15:07 10° 201° (SSW) 1,197 5.1 -10.3°
Maximum altitude 17:16:42 15° 165° (SSE) 976 4.1 -10.6°
Drops below altitude 10° 17:18:18 10° 128° (SE) 1,193 4.2 -10.8°
Enters shadow 17:18:30 - 124° (SE) 1,245 4.3 -10.9°
